Showing default

HYPERVIEW-1G, 61772

Orbit data source: Space-Track

HYPERVIEW-1G, 61772 is a payload satellite owned by SNIU (CIS) in SSO that was launched on Mon, 04 Nov 2024 UTC via a SOYUZ-2-1B launch vehicle from the Vostochny Cosmodrome (VOSTO). Payload-class satellites include a variety of spacecraft equipped with specific instruments for various scientific and technological missions. These include communications satellites like Starlink; space stations such as the ISS; scientific satellites like the Hubble; Earth observation satellites from companies like Planet Labs, Umbra, and HawkEye 360; GPS; miniature CubeSats for education and research; and military/defense satellites.

Not visible in the next 10 days
Identifier
61772, 2024-199AP
Orbit
SSO
Country
Flag of CISCIS
Related business
Manufacturer
Sputniks
Mission
Operational Amateur Imaging
Bus & Motor
CUBESAT 6U, Unknown motor
Mass
10 kg wet, 10 kg dry
Launch date (UTC)
2024-11-04 (1 year ago)
Launch vehicle
SOYUZ-2-1B
Launch site
Vostochny Cosmodrome (VOSTO)
Object type
Payload
Rocket body
Debris
Shape & HBR
Box, 0.1 m
Radar Cross Section
0.080 m², Medium (>0.1 m² and < 1m²)

Expand to show TLE details & history
Last TLE update: 12 hours ago

TLE from 12 hours ago
0 HYPERVIEW-1G
1 61772U 24199AP  25312.89245083  .00053074  00000-0  11462-2 0  9995
2 61772  97.3245 181.9853 0012019  15.1274 345.0331 15.44282245100381
Epoch: 2025-11-08T21:25Z
TLE epoch observation values (Epoch: 2025-11-08T21:25:07.751Z)
Latitude
-0.00009°
Longitude
172.38747°
Altitude
428.703 km
Speed
7.659 km/s
True Right ascension
12h 07m 56s
True Declination
0° 00' 00"
Sunlit
Object was in daylight at epoch
Visualization orbit readout
Latitude
Unknown
Longitude
Unknown
Altitude
Unknown
Speed
Unknown
Apparent Right ascension
Unknown
Apparent Declination
Unknown
Sunlit
N/A
Visualization observer readout
Local Sidereal Time
06:08:53
Azimuth
Unknown
Elevation
Unknown
Doppler factor
Unknown
Orbital elements
Apogee altitude
438.601 km
Perigee altitude
422.235 km
Semi-major axis
6,808.555 km
Eccentricity
0.0012
Inclination
97.3245°
RAAN
181.9853°
Arg. of periapsis
15.1274°
True anomaly
344.99748°
Mean anomaly
345.0331°
Eccentric anomaly
345.01529°
Mean motion
3.86332 °/min
Orbital period
93.18 mins
BSTAR
0.0011462
Loading maneuver chart data...
Computing Atmospheric mass density...
Loading historical data...
Loading historical data...
Loading historical data...
Loading historical data...
Loading historical data...
Loading historical data...
Loading historical data...

Documentation

Showing up to 5 results
|